Dodecapole 2

operational
NORAD ID: 1510 Int'l Des: 1965-065 Owner: NRL Country: US
LEOCIRCULARRETROGRADE

Dodecapole 2について

説明を読み込み中...

リアルタイム位置

3D地球を読み込み中...

次回通過

高度履歴

Altitude vs Time

uPlot chart will show altitude changes over time

軌道要素

1 01510U 65065C 25340.87263025 .00005230 00000-0 29570-2 0 9991
2 01510 90.0609 23.6402 0038714 83.5061 277.0529 14.09676533 6053
Epoch: Dec 6, 2025 • Age: 11 hours

現在のステータス

高度 857.9 km
速度 7.43 km/s
衛星直下点 18.13°N, 8.43°E
タイプ other

大規模コンステレーション

Loading constellations...